This is the latest recevied weather packets stored in our database for station/object KC9GSD. If no packets are shown the sender has not sent any weather packets the latest 10 day(s).
| Time | Temp. | Humidity | Pressure | Rain* | Wind** | Luminosity | Snow |
|---|---|---|---|---|---|---|---|
| 1777721864 | 10.56° C | 64% | 1014.2 hPa | 0 mm | - | 28 W/m² | - |
| 1777721562 | 11.11° C | 66% | 1013.9 hPa | 0 mm | - | 22 W/m² | - |
| 1777721260 | 11.11° C | 64% | 1013.7 hPa | 0 mm | - | 26 W/m² | - |
| 1777720957 | 10.56° C | 62% | 1013.5 hPa | 0 mm | - | 16 W/m² | - |
| 1777720654 | 11.11° C | 61% | 1013.7 hPa | 0 mm | - | 10 W/m² | - |
| 1777720352 | 11.11° C | 61% | 1013.8 hPa | 0 mm | - | 5 W/m² | - |
| 1777720049 | 11.11° C | 61% | 1013.8 hPa | 0 mm | - | 3 W/m² | - |
| 1777719747 | 11.11° C | 58% | 1013.5 hPa | 0 mm | - | 2 W/m² | - |
| 1777719445 | 11.11° C | 61% | 1013.8 hPa | 0 mm | - | 1 W/m² | - |
| 1777719141 | 11.11° C | 59% | 1013.5 hPa | 0 mm | - | 1 W/m² | - |
| 1777718838 | 11.11° C | 61% | 1013.4 hPa | 0 mm | - | 0 W/m² | - |
| 1777718535 | 11.11° C | 62% | 1013.7 hPa | 0 mm | - | 0 W/m² | - |
| 1777718233 | 11.11° C | 60% | 1013.9 hPa | 0 mm | - | 0 W/m² | - |
| 1777717931 | 11.11° C | 59% | 1013.8 hPa | 0 mm | - | 0 W/m² | - |
| 1777717627 | 11.11° C | 57% | 1013.4 hPa | 0 mm | - | 0 W/m² | - |
| 1777717324 | 11.11° C | 57% | 1013.3 hPa | 0 mm | - | 0 W/m² | - |
| 1777717022 | 11.11° C | 58% | 1013.5 hPa | 0 mm | - | 0 W/m² | - |
| 1777716720 | 11.11° C | 59% | 1013.3 hPa | 0 mm | - | 0 W/m² | - |
| 1777716418 | 11.11° C | 59% | 1013.1 hPa | 0 mm | - | 0 W/m² | - |
| 1777716116 | 11.11° C | 56% | 1013.4 hPa | 0 mm | - | 0 W/m² | - |
| 1777715815 | 11.11° C | 60% | 1013.1 hPa | 0 mm | - | 0 W/m² | - |
| 1777715511 | 11.11° C | 57% | 1013.1 hPa | 0 mm | - | 0 W/m² | - |
| 1777715208 | 11.67° C | 57% | 1013.2 hPa | 0 mm | - | 0 W/m² | - |
| 1777714907 | 11.67° C | 57% | 1013.2 hPa | 0 mm | - | 0 W/m² | - |
| 1777714604 | 11.67° C | 56% | 1013.4 hPa | 0 mm | - | 0 W/m² | - |
* Rain latest hour (hover to see other rain measurements)
** Current wind speed in m/s (hover to see current wind gust speed)